Regional Weather Roundup
Issued by NWS

Home | Current Version | Previous Version | Graphics & Text | Print | Product List | Glossary On
Versions: 1 2 3 4 5 6 7 8 9 10 11 12 13 14 15 16 17 18 19 20 21 22 23 24 25 26 27 28 29 30 31 32 33 34 35 36 37 38 39 40 41 42 43 44 45 46 47 48 49 50
000
ASUS43 KLMK 031510
RWRKY
KENTUCKY REGIONAL WEATHER ROUNDUP
NATIONAL WEATHER SERVICE LOUISVILLE KY
1100 AM EDT THU SEP 03 2015

NOTE "FAIR" INDICATES FEW OR NO CLOUDS BELOW 12,000 FEET
WITH NO SIGNIFICANT WEATHER AND/OR OBSTRUCTIONS TO VISIBILITY.

KYZ001>023-026-027-061>063-070>075-031600-
WESTERN AND SOUTH CENTRAL KENTUCKY

CITY           SKY/WX    TMP DP  RH WIND       PRES   REMARKS
PADUCAH        SUNNY     84  71  65 CALM      30.04S
HENDERSON      SUNNY     84  70  61 CALM      30.03S
OWENSBORO      SUNNY     86  71  60 CALM      30.05S HX  91
HOPKINSVILLE   SUNNY     83  69  63 VRB1      30.04F
BOWLING GREEN  SUNNY     84  69  60 E3        30.05S
GLASGOW        SUNNY     83  68  59 CALM      30.06F
$$

KYZ024-025-028>034-038-045-046-053-031600-
NORTH CENTRAL KENTUCKY

CITY           SKY/WX    TMP DP  RH WIND       PRES   REMARKS
LOUISVILLE/SDF SUNNY     86  67  52 CALM      30.04S HAZE
LOUISVILLE/LOU SUNNY     85  69  58 CALM      30.05S
FORT KNOX      SUNNY     84  68  59 VRB2      30.05S
$$

KYZ035>037-039>044-047>052-055>060-089>105-031600-
NORTHEAST KENTUCKY

CITY           SKY/WX    TMP DP  RH WIND       PRES   REMARKS
LEXINGTON      SUNNY     84  69  60 N6        30.07R
COVINGTON      SUNNY     84  70  62 W3        30.05S
FRANKFORT      SUNNY     84  67  56 CALM      30.05S
$$

KYZ054-064>069-076>088-106>120-031600-
SOUTHEAST KENTUCKY

CITY           SKY/WX    TMP DP  RH WIND       PRES   REMARKS
JACKSON        SUNNY     79  70  74 CALM      30.09S
LONDON         SUNNY     85  65  51 N6        30.08S
SOMERSET       SUNNY     81  68  65 CALM      30.09S
MIDDLESBORO    SUNNY     76  68  75 CALM      30.09S
MONTICELLO     SUNNY     82  71  69 CALM      30.10S
$$




USA.gov is the U.S. government's official web portal to all federal, state and local government web resources and services.